Rbgn^[z[y[W
メイン
   新天体発見情報
     Comet P/2015 X1 = P/2022 Q1 = P/2008 T13 (PANSTARRS)
投稿するにはまず登録を

スレッド表示 | 古いものから 前のトピック | 次のトピック | 下へ
投稿者 スレッド
佐藤裕久
投稿日時: 2022-9-12 12:14
モデレータ
登録日: 2005-6-12
居住地: 日本
投稿: 2701
オンライン
Comet P/2015 X1 = P/2022 Q1 = P/2008 T13 (PANSTARRS)

Erwin Schwab (Egelsbach, ドイツ)は、8月23-24日UT、スペイン Calar Altoにある0.8-m f/3 
Schmidt 反射望遠鏡で得たCCD画像から21.0等のP/2015 X1 (CBET 4212を参照)を検出した。
尾とコマは見えなかった。
中野主一氏(中央局)は、小惑星センターの"isolated tracklet file"から、Catalinaスカイ
サーベイで行われた2008年10月1日と12月31日の観測データを見つけ結合した。
NK 3986の中野主一氏の予報に対し、Delta(T)は、-0.016 dayであった。
MPEC 2021-N06の予報に対するDelta(T)は、-0.06 dayであった。
彗星年表2022の佐藤裕久の軌道要素の修正値は、Delta(T) = -0.06 dayであった。

検出位置は次のとおり、

     2022 UT             R.A. (2000) Decl.       Mag.   Observer
     Aug. 23.08953    2 47 40.91   + 6 49 12.0   21.0   Schwab
          23.10197    2 47 41.77   + 6 49 09.2   21.0     "
          23.11441    2 47 42.63   + 6 49 06.9   21.2     "
          24.08953    2 48 51.08   + 6 45 26.1   20.9     "
          24.10197    2 48 51.93   + 6 45 23.6   21.0     "
          24.11441    2 48 52.77   + 6 45 20.5   21.1     "

Catalinaスカイサーベイによる検出前の観測位置は次のとおり、

     2008 UT             R.A. (2000) Decl.       Mag.
     Oct.  1.37698    0 22 58.76   - 7 32 30.5   20.0
           1.38512    0 22 58.44   - 7 32 35.3   19.9
           1.39329    0 22 58.08   - 7 32 43.6   19.0
           1.40147    0 22 57.86   - 7 32 48.7   19.8
     Dec. 31.11418    1 02 39.26   - 6 16 13.3   18.9
          31.12264    1 02 39.76   - 6 16 10.2   19.8
          31.13120    1 02 40.52   - 6 16 04.6   19.5
          31.13973    1 02 41.06   - 6 16 00.9   19.6

MPCの連結軌道要素と位置推算表は次のとおり、

Orbital elements:
    P/2015 X1 (PANSTARRS)                                                       
Epoch 2022 Sept. 18.0 TT = JDT 2459840.5                                        
T 2022 Sept. 6.59611 TT                                 Rudenko                 
q   2.1120578            (2000.0)            P               Q                  
n   0.14211806     Peri.  218.73923     +0.93230245     -0.35562615             
a   3.6366643      Node   161.75757     +0.36144123     +0.90948060             
e   0.4192321      Incl.   12.15177     +0.01312917     +0.21534876             
P   6.94                                                                        
From 102 observations 2008 Oct. 1-2022 Aug. 24, mean residual 0".6.             
                                                                                
    P/2015 X1 (PANSTARRS)                                                       
Epoch 2015 Oct. 25.0 TT = JDT 2457320.5                                         
T 2015 Oct. 10.67759 TT                                 Rudenko                 
q   2.1035374            (2000.0)            P               Q                  
n   0.14255114     Peri.  219.03048     +0.93027520     -0.36090722             
a   3.6292948      Node   161.79110     +0.36658251     +0.90746679             
e   0.4204005      Incl.   12.16213     +0.01432905     +0.21505813             
P   6.91                                                                        
From 102 observations 2008 Oct. 1-2022 Aug. 24, mean residual 0".6.             
                                                                                
    P/2015 X1 (PANSTARRS)                                                       
Epoch 2008 Oct. 21.0 TT = JDT 2454760.5                                         
T 2008 Nov.  9.31431 TT                                 Rudenko                 
q   2.0958376            (2000.0)            P               Q                  
n   0.14294003     Peri.  218.75533     +0.93141882     -0.35799366             
a   3.6227091      Node   161.88741     +0.36368854     +0.90870467             
e   0.4214723      Incl.   12.17605     +0.01377061     +0.21470065             
P   6.90                                                                        
From 102 observations 2008 Oct. 1-2022 Aug. 24, mean residual 0".6.             
                                                                                
Ephemeris:
Date    TT    R. A. (2000) Decl.     Delta      r    Elong.  Phase   m1
2022 07 29    02 12 43.2 +07 22 35   1.8400  2.1337    92.1    28.4  20.6
...
2022 08 13    02 34 48.2 +07 16 32   1.6765  2.1205   101.2    28.0  20.4
...
2022 08 21    02 45 10.0 +06 56 30   1.5943  2.1159   106.4    27.3  20.3
...
2022 08 27    02 52 07.8 +06 33 26   1.5355  2.1136   110.5    26.6  20.2
2022 08 28    02 53 13.0 +06 28 55   1.5259  2.1133   111.2    26.5  20.2
2022 08 29    02 54 16.7 +06 24 13   1.5165  2.1131   112.0    26.3  20.2
...
2022 09 04    03 00 09.7 +05 52 00   1.4616  2.1122   116.3    25.3  20.1
...
2022 09 12    03 06 35.2 +04 58 56   1.3939  2.1125   122.5    23.7  20.0
...
2022 09 27    03 13 41.4 +02 52 23   1.2879  2.1178   134.9    19.6  19.8

(MPEC 2022-Q153、CBET 5164、oaa-comet 3684)

スレッド表示 | 古いものから 前のトピック | 次のトピック | トップ

投稿するにはまず登録を
 
© 1999 Tsutomu Seki.